EW7084 Weather Reports


Display with metric or nautical units.
time (UTC)temp
F
wind
direction
speed
MPH
gust
MPH
rain 1hr
in
rain 24hr
in
rain mn
in
humidity
%
barometer
mb
20260906231542 70 276 0.0 0.0 0.00 0.00 0.00 68 1017.9
20260906230043 71 276 0.0 0.0 0.00 0.00 0.00 67 1017.8
20260906224544 71 276 0.0 0.0 0.00 0.00 0.00 66 1017.8
20260906223045 73 276 0.0 0.0 0.00 0.00 0.00 61 1017.8
20260906221543 74 276 0.0 2.0 0.00 0.00 0.00 60 1017.7
20260906220041 74 276 0.0 2.0 0.00 0.00 0.00 57 1017.5
20260906214541 74 275 0.0 4.0 0.00 0.00 0.00 56 1017.4
20260906213042 75 294 3.0 11.0 0.00 0.00 0.00 50 1017.3
20260906211542 76 32 1.0 6.0 0.00 0.00 0.00 51 1017.4
20260906210040 77 280 1.0 5.0 0.00 0.00 0.00 49 1017.4
20260906204553 77 34 2.0 5.0 0.00 0.00 0.00 49 1017.3
20260906203042 78 35 2.0 12.0 0.00 0.00 0.00 48 1017.2
20260906201540 78 17 3.0 11.0 0.00 0.00 0.00 47 1017.1
20260906200037 77 21 2.0 11.0 0.00 0.00 0.00 48 1017.0
20260906194536 77 218 3.0 10.0 0.00 0.00 0.00 49 1017.0
20260906193034 77 249 2.0 7.0 0.00 0.00 0.00 48 1016.9
20260906191533 79 5 5.0 10.0 0.00 0.00 0.00 46 1016.9
20260906190031 77 28 3.0 12.0 0.00 0.00 0.00 49 1017.0
20260906184530 76 57 3.0 9.0 0.00 0.00 0.00 51 1016.9
20260906183029 74 261 1.0 14.0 0.00 0.00 0.00 54 1016.9
20260906181539 76 30 1.0 8.0 0.00 0.00 0.00 53 1017.1
20260906180041 77 319 2.0 10.0 0.00 0.00 0.00 52 1017.0
20260906174525 75 302 3.0 13.0 0.00 0.00 0.00 56 1017.1
20260906173123 76 240 3.0 12.0 0.00 0.00 0.00 52 1017.1
20260906171521 74 268 4.0 11.0 0.00 0.00 0.00 57 1017.2
20260906170021 74 269 0.0 0.0 0.00 0.00 0.00 57 1017.2
20260906164518 74 262 0.0 0.0 0.00 0.00 0.00 61 1017.4
20260906163016 73 245 0.0 0.0 0.00 0.00 0.00 63 1017.4
20260906161523 72 272 0.0 0.0 0.00 0.00 0.00 64 1017.6
20260906160014 70 298 0.0 0.0 0.00 0.00 0.00 70 1017.7
20260906154510 70 290 0.0 0.0 0.00 0.00 0.00 70 1017.9
20260906153007 70 17 0.0 0.0 0.00 0.00 0.00 71 1017.9
20260906151506 69 19 0.0 0.0 0.00 0.00 0.00 71 1017.7
20260906150003 69 355 0.0 0.0 0.00 0.00 0.00 72 1017.8
20260906144500 67 17 0.0 0.0 0.00 0.00 0.00 76 1017.8
20260906143059 67 360 0.0 0.0 0.00 0.00 0.00 77 1017.8
20260906141558 66 360 0.0 0.0 0.00 0.00 0.00 82 1017.7
20260906140058 65 344 0.0 0.0 0.00 0.00 0.00 86 1017.5
20260906134548 63 319 0.0 0.0 0.00 0.00 0.00 86 1017.5
20260906133110 63 317 0.0 0.0 0.00 0.00 0.00 88 1017.6
20260906131546 63 317 0.0 0.0 0.00 0.00 0.00 88 1017.4
20260906130054 62 347 0.0 0.0 0.00 0.00 0.00 89 1017.5
20260906124543 62 331 0.0 0.0 0.00 0.00 0.00 90 1017.5
20260906123040 62 12 0.0 0.0 0.00 0.00 0.00 91 1017.3
20260906121541 62 355 0.0 0.0 0.00 0.00 0.00 91 1017.2
20260906120036 61 24 0.0 0.0 0.00 0.00 0.00 91 1017.0
20260906114543 61 24 0.0 0.0 0.00 0.00 0.00 92 1016.9
20260906113030 60 24 0.0 0.0 0.00 0.00 0.00 91 1016.9
20260906110026 60 24 0.0 0.0 0.00 0.00 0.00 91 1016.7
20260906104525 59 24 0.0 0.0 0.00 0.00 0.00 91 1016.6
20260906103024 59 24 0.0 0.0 0.00 0.00 0.00 91 1016.4
20260906101524 59 24 0.0 0.0 0.00 0.00 0.00 91 1016.3
20260906100025 59 24 0.0 0.0 0.00 0.00 0.00 90 1016.2
20260906094522 58 24 0.0 0.0 0.00 0.00 0.00 90 1016.0
20260906093020 57 24 0.0 0.0 0.00 0.00 0.00 90 1015.8
20260906091523 57 24 0.0 0.0 0.00 0.00 0.00 90 1015.5
20260906090016 57 24 0.0 0.0 0.00 0.00 0.00 89 1015.5
20260906084514 57 24 0.0 0.0 0.00 0.00 0.00 89 1015.3
20260906083014 57 24 0.0 0.0 0.00 0.00 0.00 89 1015.3
20260906081517 57 24 0.0 0.0 0.00 0.00 0.00 89 1015.2
20260906080013 57 24 0.0 0.0 0.00 0.00 0.00 88 1015.1
20260906074509 58 24 0.0 0.0 0.00 0.00 0.00 89 1015.1
20260906073006 59 24 0.0 0.0 0.00 0.00 0.00 89 1015.2
20260906071505 59 24 0.0 0.0 0.00 0.00 0.00 89 1015.2
20260906070006 58 24 0.0 0.0 0.00 0.00 0.00 89 1015.2
20260906064504 59 24 0.0 0.0 0.00 0.00 0.00 88 1015.2
20260906063004 59 24 0.0 0.0 0.00 0.00 0.00 88 1015.2
20260906061503 59 24 0.0 0.0 0.00 0.00 0.00 88 1015.4
20260906060002 59 24 0.0 0.0 0.00 0.00 0.00 88 1015.4
20260906054502 59 24 0.0 0.0 0.00 0.00 0.00 88 1015.3
20260906053102 59 24 0.0 0.0 0.00 0.00 0.00 88 1015.4
20260906051612 59 24 0.0 0.0 0.00 0.00 0.00 88 1015.5
20260906044606 60 24 0.0 0.0 0.00 0.00 0.00 87 1015.5
20260906043056 60 24 0.0 0.0 0.00 0.00 0.00 87 1015.4
20260906041556 60 24 0.0 0.0 0.00 0.00 0.00 87 1015.4
20260906040133 60 24 0.0 0.0 0.00 0.00 0.00 86 1015.3
20260906034603 60 24 0.0 0.0 0.00 0.00 0.00 85 1015.2
20260906033104 61 24 0.0 0.0 0.00 0.00 0.00 84 1015.1
20260906031550 61 24 0.0 0.0 0.00 0.00 0.00 85 1014.9
20260906030050 62 24 0.0 0.0 0.00 0.00 0.00 84 1014.8
20260906024602 62 24 0.0 0.0 0.00 0.00 0.00 84 1015.0
20260906023059 62 24 0.0 0.0 0.00 0.00 0.00 84 1014.9
20260906021548 63 24 0.0 0.0 0.00 0.00 0.00 83 1014.8
20260906020046 64 24 0.0 0.0 0.00 0.00 0.00 82 1014.7
20260906014547 64 24 0.0 0.0 0.00 0.00 0.00 81 1014.6
20260906013045 65 24 0.0 0.0 0.00 0.00 0.00 79 1014.5
20260906011544 65 24 0.0 0.0 0.00 0.00 0.00 78 1014.5
20260906010044 66 24 0.0 0.0 0.00 0.00 0.00 76 1014.5
20260906004541 67 24 0.0 0.0 0.00 0.00 0.00 76 1014.3
20260906003042 68 24 0.0 0.0 0.00 0.00 0.00 75 1014.1
20260906001542 69 24 0.0 0.0 0.00 0.00 0.00 74 1013.9
20260906000041 70 24 0.0 0.0 0.00 0.00 0.00 73 1013.9
20260905234541 70 24 0.0 0.0 0.00 0.00 0.00 73 1013.8
20260905233049 71 24 0.0 4.0 0.00 0.00 0.00 71 1013.8